Regional Weather Roundup
Issued by NWS

Home | Current Version | Previous Version | Text Only | Print | Product List | Glossary Off
Versions: 1 2 3 4 5 6 7 8 9 10 11 12 13 14 15 16 17 18 19 20 21 22 23 24 25 26 27 28 29 30 31 32 33 34 35 36 37 38 39 40 41 42 43 44 45 46 47 48 49 50

000
ASUS43 KFSD 052110
RWRSD

WEATHER ROUNDUP FOR SOUTH DAKOTA
NATIONAL WEATHER SERVICE SIOUX FALLS SD
300 PM CST THU MAR 05 2015

NOTE: "FAIR" INDICATES FEW OR NO CLOUDS BELOW 12,000 FEET WITH NO
SIGNIFICANT WEATHER AND/OR OBSTRUCTIONS TO VISIBILITY.


SDZ001>005-009-010-012>017-052200-
NORTHWEST AND NORTH CENTRAL SOUTH DAKOTA

CITY           SKY/WX    TMP DP  RH WIND       PRES   REMARKS
BUFFALO          N/A     45  11  25 NW29G39   29.98S
FAITH            N/A     47  10  22 NW25G35   30.03F
MOBRIDGE       SUNNY     36   8  31 S15       30.08F
$$

SDZ012>016-024>037-041>051-057-063-072>074-052200-
SOUTHWEST AND SOUTH CENTRAL SOUTH DAKOTA

CITY           SKY/WX    TMP DP  RH WIND       PRES   REMARKS
RAPID CTY ARPT MOSUNNY   45  14  28 VRB6      30.08F
PIERRE         SUNNY     31  15  52 S16       30.14F WCI  20
CUSTER         SUNNY     35  10  35 W13G22    30.06S WCI  26
ELLSWORTH AFB  MOSUNNY   46  16  30 NW21      30.06F
PHILIP         MOSUNNY   38  20  48 SW12      30.11F
PINE RIDGE     SUNNY     38  19  46 W14       30.14F
SPEARFISH      FAIR      39  16  38 W18G28    30.09R
WINNER         FAIR      39  10  30 S10       30.16F
$$

SDZ004>011-016>023-039-040-052200-
NORTHEAST SOUTH DAKOTA

CITY           SKY/WX    TMP DP  RH WIND       PRES   REMARKS
ABERDEEN       SUNNY     23  11  60 S20       30.22F WCI   8
WATERTOWN      SUNNY     20   8  60 S14       30.23F WCI   7
SISSETON         N/A     21   8  57 SW16      30.26F WCI   7
$$

SDZ017-020-022-023-036>040-048>070-052200-
SOUTHEAST SOUTH DAKOTA

CITY           SKY/WX    TMP DP  RH WIND       PRES   REMARKS
SIOUX FALLS    SUNNY     26   6  42 S15       30.30F WCI  14
HURON          SUNNY     30  11  45 S14G22    30.23F WCI  19
CHAMBERLAIN    SUNNY     35  11  37 S12       30.19F WCI  26
MITCHELL       SUNNY     34   5  29 S17       30.26F WCI  23
YANKTON        SUNNY     34   3  27 S18       30.31F WCI  23
$$

ABBREVIATIONS USED IN REMARKS
   TC - TEMPERATURE IN CELSIUS
  WCI - WIND CHILL INDEX
   HX - HEAT INDEX
  VSB - VISIBILITY



USA.gov is the U.S. government's official web portal to all federal, state and local government web resources and services.